Location: Kellogg
(38.0159°N, 90.0546°W)
Time: 22:22:16
(UTC+00:00)

Vanguard 1 - Pass Details

Date: 22 September 2024
Orbit: 648 x 3825 km, 34.3° (Epoch: 12 October)

Event Time Altitude Azimuth Distance (km) Brightness Sun altitude
Rises 19:50:45 0° 273° (W) 6,214 14.6 43.2°
Reaches altitude 10° 19:55:37 10° 271° (W) 4,680 14.1 42.5°
Maximum altitude 20:06:57 63° 195° (SSW) 1,446 12.2 40.9°
Drops below altitude 10° 20:13:09 10° 114° (ESE) 2,645 12.2 40.0°
Sets 20:15:12 0° 111° (ESE) 3,386 12.6 39.7°
